Regional Weather Roundup
Issued by NWS

Home | Current Version | Previous Version | Text Only | Print | Product List | Glossary Off
Versions: 1 2 3 4 5 6 7 8 9 10 11 12 13 14 15 16 17 18 19 20 21 22 23 24 25 26 27 28 29 30 31 32 33 34 35 36 37 38 39 40 41 42 43 44 45 46 47 48 49 50

000
ASUS43 KFSD 031410
RWRSD

WEATHER ROUNDUP FOR SOUTH DAKOTA
NATIONAL WEATHER SERVICE SIOUX FALLS SD
900 AM CDT TUE MAY 03 2016

NOTE: "FAIR" INDICATES FEW OR NO CLOUDS BELOW 12,000 FEET WITH NO
SIGNIFICANT WEATHER AND/OR OBSTRUCTIONS TO VISIBILITY.


SDZ001>005-009-010-012>017-031500-
NORTHWEST AND NORTH CENTRAL SOUTH DAKOTA

CITY           SKY/WX    TMP DP  RH WIND       PRES   REMARKS
BUFFALO          N/A     49  37  63 W5        30.02R
FAITH            N/A     52  42  69 W13       30.06R
MOBRIDGE       SUNNY     51  45  79 NW8       30.00S
$$

SDZ012>016-024>037-041>051-057-063-072>074-031500-
SOUTHWEST AND SOUTH CENTRAL SOUTH DAKOTA

CITY           SKY/WX    TMP DP  RH WIND       PRES   REMARKS
RAPID CTY ARPT SUNNY     52  38  58 W6        30.10R
PIERRE         SUNNY     47  42  83 W7        30.04S
CUSTER         CLOUDY    53  30  41 MISG      30.14S
ELLSWORTH AFB  SUNNY     51  40  68 W3        30.09R
PHILIP         SUNNY     45  42  89 W7        30.08R
PINE RIDGE     SUNNY     42  39  89 CALM      30.12R
WINNER         FAIR      51  42  71 W9        30.07S
$$

SDZ004>011-016>023-039-040-031500-
NORTHEAST SOUTH DAKOTA

CITY           SKY/WX    TMP DP  RH WIND       PRES   REMARKS
ABERDEEN       SUNNY     51  44  77 W6        29.99S
WATERTOWN      SUNNY     53  45  74 W8        29.98F
BROOKINGS      SUNNY     52  46  80 MISG      30.00F
SISSETON         N/A     58  44  60 W12       29.94F
$$

SDZ017-020-022-023-036>040-048>070-031500-
SOUTHEAST SOUTH DAKOTA

CITY           SKY/WX    TMP DP  RH WIND       PRES   REMARKS
SIOUX FALLS    MOSUNNY   54  46  74 W9        30.02F
HURON          SUNNY     50  44  80 VRB6      30.03S
CHAMBERLAIN    SUNNY     48  46  90 W6        30.06S
MITCHELL       SUNNY     50  45  83 NW8       30.05S
YANKTON        SUNNY     54  45  71 W8        30.04S
$$

ABBREVIATIONS USED IN REMARKS
   TC - TEMPERATURE IN CELSIUS
  WCI - WIND CHILL INDEX
   HX - HEAT INDEX
  VSB - VISIBILITY





USA.gov is the U.S. government's official web portal to all federal, state and local government web resources and services.